Hourly Data Report for October 19, 2013

All times are specified in Local Standard Time (LST). Add 1 hour to adjust for Daylight Saving Time where and when it is observed.

FREDERICTON
NEW BRUNSWICK

45°52'08.000" N
66°32'14.000" W
20.70 m
8101505
71700
YFC

Download Data

Hourly Data (October 2013)
Hourly Data Report for October 19, 2013
Temp Definition
°C
Dew Point Temp Definition
°C
Rel Hum Definition
%
Wind Dir Definition
10's deg

Wind Spd Definition
km/h
Visibility Definition
km
Stn Press Definition
kPa
Hmdx Definition


Wind Chill Definition


Weather Definition


TIME
00:00 Legend Double Dagger 9.6 8.8 95 21 4 16.1 100.31     LegendNANA
01:00 Legend Double Dagger 8.7 7.5 92 21 9 16.1 100.36     LegendNANA
02:00 Legend Double Dagger 7.3 6.7 96 21 8 16.1 100.38     LegendNANA
03:00 Legend Double Dagger 5.9 5.6 98 20 8 16.1 100.42     LegendNANA
04:00 Legend Double Dagger 6.6 5.9 95 22 4 16.1 100.47     LegendNANA
05:00 Legend Double Dagger 5.1 4.8 98 18 8 16.1 100.49     LegendNANA
06:00 Legend Double Dagger 4.1 3.8 98 19 9 11.3 100.52     LegendNANA
07:00 Legend Double Dagger 3.9 3.6 98 16 11 16.1 100.58     LegendNANA
08:00 Legend Double Dagger 6.7 5.8 94 16 15 16.1 100.68     LegendNANA
09:00 Legend Double Dagger 9.7 7.3 85 21 13 16.1 100.70     LegendNANA
10:00 Legend Double Dagger 12.0 6.5 69 27 18 16.1 100.71     LegendNANA
11:00 Legend Double Dagger 13.4 5.4 58 28 24 16.1 100.70     LegendNANA
12:00 Legend Double Dagger 14.5 5.0 53 27 21 16.1 100.69     LegendNANA
13:00 Legend Double Dagger 14.9 4.8 50 27 24 16.1 100.67     LegendNANA
14:00 Legend Double Dagger 15.8 4.7 47 24 26 16.1 100.71     LegendNANA
15:00 Legend Double Dagger 15.8 4.5 47 24 18 16.1 100.72     LegendNANA
16:00 Legend Double Dagger 15.6 4.8 48 23 18 16.1 100.74     LegendNANA
17:00 Legend Double Dagger 13.2 5.3 59 23 9 16.1 100.81     LegendNANA
18:00 Legend Double Dagger 11.9 5.6 65 15 5 16.1 100.80     LegendNANA
19:00 Legend Double Dagger 9.1 6.5 83 16 11 16.1 100.76     LegendNANA
20:00 Legend Double Dagger 8.8 6.1 83 22 11 16.1 100.80     LegendNANA
21:00 Legend Double Dagger 7.7 6.0 89 20 5 16.1 100.75     LegendNANA
22:00 Legend Double Dagger 7.6 6.3 92 22 4 16.1 100.76     LegendNANA
23:00 Legend Double Dagger 7.9 6.2 89   0 16.1 100.70     LegendNANA

Notes on Data Quality.

Legend

  • E = Estimated
  • M = Missing
  • NA = Not Available
  • ‡ = Partner data that is not subject to review by the National Climate Archives
Date modified: